Погода в Паттайе

Таиланд     12°55′22″N   100°52′57″E
темп.,
°C
ветер,
м/с
пор.,
м/с
влажн.,
%
обл.,
%
осадки,
мм/ч
давл.,
гПа
погр.,
м
25 февраля, чт
чт2501:00+24ю378335 0.0 1009236
04:00+23ю348490 0.0 1008135
07:00+23ююв238591 0.0 1011135
10:00+30ююз445951 0.0 1011791
13:00+31зюз545075 0.0 1009900
16:00+31юз3342100 0.0 1005529
19:00+28ю586096 0.0 1006179
22:00+26ю487721 0.0 1007297
26 февраля, пт
пт2601:00+25ю358113 0.0 1007170
04:00+24ю238788 0.0 1006103
07:00+24ю227992 0.0 100872
10:00+30юз215029 0.0 1009630
13:00+32зюз544215 0.0 1007942
16:00+32юз45370 0.0 1003839
19:00+27юв58560 0.0 1005165
22:00+25ю48720 0.0 1007224
27 февраля, сб
сб2701:00+24ююв34770 0.0 1007112
04:00+24ююв23860 0.0 100580
07:00+23юв22880 0.0 100774
10:00+30ю34490 0.0 1009784
13:00+33юз55460 0.0 10061040
16:00+33ююз55380 0.0 1004881
19:00+27ююв46560 0.0 1006135
22:00+25юв47650 0.0 1008166
28 февраля, вс
вс2801:00+24ююв36770 0.0 1008201
04:00+24ююв34823 0.0 1007129
07:00+24ююв338426 0.0 1009152
10:00+31ююз564928 0.0 1011961
13:00+33ю674524 0.0 10091324
16:00+31ю77540 0.0 10061108
19:00+26ю58740 0.0 1008468
22:00+25ю48820 0.0 1010361
1 марта, пн
пн101:00+25ююз47883 0.0 1010339
04:00+24ю23925 0.0 1009106
07:00+24ю22909 0.0 1011126
10:00+30ююз45613 0.0 1013958
13:00+31юз556018 0.1 1010901
16:00+31ююз655731 0.2 10081118
19:00+27ю587817 0.2 1009402
22:00+26ю58820 0.0 1012320